K1FSY-9 Weather Reports


time (UTC)temp
C
wind
direction
speed
KPH
gust
KPH
rain 1hr
cm
rain 24hr
cm
rain mn
cm
humidity
%
barometer
mb
20260502130353 11 229 1.6 8.0 0.00 0.13 0.10 84 1009.8
20260502120349 7 284 1.6 3.2 0.00 0.13 0.10 93 1010.1
20260502021421 11 228 3.2 8.0 0.00 0.00 0.00 64 1009.8
20260502014418 11 222 3.2 6.4 0.00 0.00 0.00 62 1009.8
20260502004413 12 230 1.6 4.8 0.00 0.00 0.00 59 1008.8
20260502001413 12 226 1.6 3.2 0.00 0.00 0.00 57 1008.1
20260501234406 13 242 0.0 3.2 0.00 0.00 0.00 52 1007.4
20260501231404 13 232 0.0 4.8 0.00 0.00 0.00 50 1006.7
20260501224417 15 211 3.2 8.0 0.00 0.00 0.00 44 1006.7
20260501221356 16 244 3.2 11.3 0.00 0.00 0.00 40 1006.4
20260501214353 16 265 1.6 8.0 0.00 0.00 0.00 40 1006.4
20260501201347 17 310 4.8 12.9 0.00 0.00 1.22 36 1006.4
20260501191341 16 299 4.8 12.9 0.00 0.00 1.22 37 1006.4
20260501184340 16 350 4.8 14.5 0.00 0.00 1.22 36 1007.1
20260501181337 16 318 6.4 17.7 0.00 0.00 1.22 34 1007.1
20260501174334 15 341 4.8 14.5 0.00 0.00 1.22 41 1007.4
20260501171330 15 324 4.8 11.3 0.00 0.00 1.22 41 1007.7
20260501164331 14 310 4.8 12.9 0.00 0.00 1.22 39 1007.7
20260501161326 13 347 6.4 19.3 0.00 0.00 1.22 45 1008.1
20260501154325 13 346 6.4 14.5 0.00 0.00 1.22 45 1008.8
20260501151320 13 311 6.4 22.5 0.00 0.00 1.22 45 1009.1
20260501144325 12 352 6.4 22.5 0.00 0.00 1.22 50 1009.4